#timestamp,LO_Frequency,Hit,StdDev 
1534374015.5,286047008.4,N
1534374035.3,286047008.3,N
1534374055.2,286047008.0,N
1534374075.9,286047010.5,N
1534374095.7,286047010.6,N
1534374115.6,286047008.3,N
1534374135.4,286047008.3,N
1534374155.2,286047008.2,N
1534374175.1,286047007.8,N
1534374176.0,286047007.8,N
1534374195.8,286047009.6,N
1534374215.7,286047010.6,Y
1534374235.5,286047003.1,P
1534374255.3,286047003.7,N
1534374275.2,286047005.4,P
1534374295.9,286047005.3,Y
1534374315.7,286047002.3,P
1534374335.6,286047002.7,N
1534374355.4,286047002.0,N
1534374375.3,286047004.4,Y
1534374395.1,286046998.1,P
1534374396.0,286046998.1,N
1534374415.8,286047000.6,N
1534374435.7,286047000.2,N
1534374455.5,286046999.8,N
1534374475.3,286047001.5,N
1534374495.2,286047002.6,N
1534374515.0,286047006.0,Y
1534374515.9,286047006.0,P
1534374535.8,286047005.1,N
1534374555.6,286047005.2,N
1534374575.4,286047005.6,N
1534374595.3,286047003.7,N
1534374615.1,286047002.0,N
1534374635.8,286047004.3,N
1534374655.7,286047003.1,N
1534374675.5,286047005.7,Y
1534374695.4,286046999.7,P
1534374715.2,286047003.0,N
1534374735.0,286047003.5,N
1534374735.9,286047003.5,N
1534374755.8,286047003.9,N
1534374775.6,286046999.9,N
1534374795.4,286046998.3,N
1534374815.3,286046999.3,N
1534374835.1,286046998.3,N
1534374855.9,286046999.1,N
1534374875.7,286047000.7,N
1534374895.5,286046998.2,N
1534374915.4,286046996.5,N
1534374935.2,286046999.6,N
1534374955.0,286046996.5,N
1534374955.9,286046996.5,N
1534374975.8,286046999.2,N
1534374995.6,286046997.4,N
1534375015.5,286046997.5,N
1534375035.3,286046997.5,N
1534375055.1,286046997.6,N
1534375075.9,286046997.5,N
1534375095.7,286046996.7,N
1534375115.5,286046999.0,N
1534375135.4,286046997.4,N
1534375155.2,286046999.2,N
1534375175.1,286046999.6,N
1534375176.0,286046999.6,N
1534375195.8,286046996.7,N
1534375215.6,286046996.9,N
1534375235.5,286046999.4,N
1534375255.3,286046999.2,N
1534375275.1,286046999.1,N
1534375295.9,286046997.0,N
1534375315.7,286046997.0,N
1534375335.6,286046996.9,N
1534375355.4,286046997.2,N
1534375375.2,286046997.4,N
1534375395.1,286046997.6,N
1534375396.0,286046997.6,N
1534375415.8,286046996.8,N
1534375435.6,286046996.5,Y
1534375455.5,286046999.8,P
1534375475.3,286047002.5,N
1534375495.2,286047000.0,N
1534375515.9,286047003.9,N
1534375535.7,286047004.3,N
1534375555.6,286047001.5,N
1534375575.4,286046999.8,N
1534375595.2,286046999.7,N
1534375615.1,286046999.8,N
1534375616.0,286046999.8,N
1534375635.8,286047001.8,N
1534375655.6,286047001.5,N
1534375675.5,286047002.3,N
1534375695.3,286047002.2,N
1534375715.2,286047004.3,N
1534375735.9,286047001.9,N
1534375755.7,286047002.6,N
1534375775.6,286047002.4,N
1534375795.4,286047002.3,N
1534375815.2,286047002.7,N
1534375835.1,286046999.8,N
1534375836.0,286046999.8,N
1534375855.8,286046999.7,N
1534375875.7,286047003.2,N
1534375895.5,286047006.0,Y
1534375915.3,286047002.3,P
1534375935.2,286047002.1,P
1534375955.9,286047002.3,P
1534375975.7,286047002.8,Y
1534375995.6,286046996.6,P
1534376015.4,286046999.0,N
1534376035.2,286046998.3,N
1534376055.1,286046998.5,N
1534376056.0,286046998.5,N
1534376075.8,286046999.3,N
1534376095.7,286046997.0,N
1534376115.5,286046996.7,N
1534376135.3,286046997.5,N
1534376155.2,286046997.4,N
1534376175.0,286046997.7,N
1534376175.9,286046997.7,N
1534376195.7,286046997.3,N
1534376215.6,286046995.7,Y
1534376235.4,286046999.5,P
1534376255.3,286046998.9,N
1534376275.1,286046998.5,N
1534376276.0,286046998.5,N
1534376295.8,286046998.8,N
1534376315.7,286046998.8,N
1534376335.5,286046998.9,N
1534376355.3,286046999.2,N
1534376375.2,286046999.2,N
1534376395.0,286047000.5,N
1534376395.9,286047000.5,N
1534376415.8,286047000.0,N
1534376435.6,286047002.1,N
1534376455.4,286047004.4,Y
1534376475.3,286047003.3,P
1534376495.1,286047003.8,N
1534376515.8,286047003.3,N
1534376535.7,286047006.0,Y
1534376555.5,286047001.9,P
1534376575.4,286047002.7,P
1534376595.2,286047001.3,P
1534376615.0,286047001.9,Y
1534376615.9,286047001.9,P
1534376635.8,286046999.8,N
1534376655.6,286047002.3,N
1534376675.4,286047000.9,N
1534376695.3,286047000.8,N
1534376715.1,286047001.1,N
1534376735.9,286047001.0,N
1534376755.7,286047002.7,Y
1534376775.5,286047001.0,P
1534376795.4,286047001.1,P
1534376815.2,286046999.0,P
1534376835.0,286047000.5,N
1534376835.9,286047000.5,N
1534376855.8,286047002.8,Y
1534376875.6,286046999.9,P
1534376895.5,286046999.8,N
1534376915.3,286047002.8,P
1534376935.1,286046999.9,N
1534376955.9,286046999.8,N
1534376975.7,286047002.7,N
1534376995.5,286047002.5,N
1534377015.4,286047002.8,N
1534377035.2,286047001.4,N
1534377055.1,286047004.0,Y
1534377056.0,286047004.0,P
1534377075.8,286047001.7,N
1534377095.6,286047001.5,N
1534377115.5,286047002.3,N
1534377135.3,286047001.6,N
1534377155.1,286047002.1,N
1534377175.9,286047001.4,N
1534377195.7,286047003.5,Y
1534377215.6,286047002.8,P
1534377235.4,286047000.3,N
1534377255.2,286047001.1,N
1534377275.1,286046998.1,N
1534377276.0,286046998.1,N
1534377295.8,286046999.1,N
1534377315.6,286046998.8,N
1534377335.5,286046999.0,N
1534377355.3,286047001.0,N
1534377375.2,286047001.0,N
1534377395.9,286047002.6,N
1534377415.7,286047001.3,N
1534377435.6,286047001.6,N
1534377455.4,286047001.8,N
1534377475.3,286047003.9,N
1534377495.1,286047001.8,N
1534377496.0,286047001.8,N
1534377515.8,286046999.8,N
1534377535.7,286047000.2,N
1534377555.5,286047002.8,N
1534377575.3,286046999.9,N
1534377595.2,286047002.5,N
